Location: Gunung Kajang
(2.4167°N, 113.7167°E)
Time: 16:42:09
(UTC+00:00)

Cosmos 1340 - Pass Details

Date: 29 May 2022
Orbit: 491 x 498 km, 81.2° (Epoch: 28 June)

Event Time Altitude Azimuth Distance (km) Brightness Sun altitude
Exits shadow 12:23:13 31° 339° (NNW) 897 4.2 -26.8°
Drops below altitude 10° 12:25:20 10° 354° (N) 1,693 5.7 -27.3°
Sets 12:27:28 0° 358° (N) 2,574 6.6 -27.8°
